Location: Innerarity Island Observatory
(30.3139°N, 87.4867°W)
Time: 21:28:52
(UTC-05:00)

OPAL - Visible Passes

Search period start: 27 March 2017 00:00
Search period end: 06 April 2017 00:00
Orbit: 743 x 795 km, 100.2° (Epoch: 26 March)

Date Brightness Start Highest point End Pass type
(mag) Time Alt. Az. Time Alt. Az. Time Alt. Az.
27 Mar 9.7 04:57:07 10° NE 05:01:08 24° E 05:05:07 10° SSE visible
28 Mar 7.4 05:59:40 10° N 06:04:38 69° WNW 06:09:32 10° SSW visible
29 Mar 8.5 05:24:22 10° NNE 05:29:11 47° ESE 05:33:55 10° S visible
30 Mar 10.0 04:50:05 10° NE 04:53:34 19° E 04:57:00 10° SE visible
31 Mar 7.4 05:52:08 10° NNE 05:57:08 88° W 06:02:04 10° SSW visible
01 Apr 9.0 05:17:04 10° NE 05:21:38 36° E 05:26:09 10° SSE visible
02 Apr 10.3 04:43:17 10° ENE 04:45:58 15° E 04:48:40 10° SE visible
03 Apr 7.7 05:44:39 10° NNE 05:49:36 72° ESE 05:54:32 10° S visible
04 Apr 9.4 05:09:49 10° NE 05:14:04 28° E 05:18:17 10° SSE visible
05 Apr 10.5 04:37:05 10° E 04:38:23 11° E 04:39:41 10° ESE visible
